Saint Simons Island, GA

10:50 AM EST on December 13, 2019 (GMT -0500)
McKinnon

Weather History for KSSI - October, 2019

Change the Weather History Date:

Tuesday, October 1, 2019

  Actual Average Record
Temperature  
Mean Temperature 84 °F 75 °F  
Max Temperature 89 °F 82 °F 94 °F (1971)
Min Temperature 80 °F 68 °F 47 °F (1967)
Degree Days  
Heating Degree Days 0 0  
Month to date heating degree days 0  
Since 1 July heating degree days 0  
Cooling Degree Days 20 10  
Month to date cooling degree days 10  
Year to date cooling degree days 2381  
Growing Degree Days 34 (Base 50)    
Moisture  
Dew Point 73 °F    
Average Humidity 72    
Maximum Humidity 81    
Minimum Humidity 57    
Precipitation  
Precipitation 0.00 in 0.20 in 3.38 in (2015)
Month to date precipitation 0.20  
Year to date precipitation 36.07  
Snow  
Snow 0.00 in - 0.00 in ()
Month to date snowfall  
Since 1 July snowfall  
Since 1 September snowfall  
Snow Depth -    
Sea Level Pressure  
Sea Level Pressure 30.06 in    
Wind  
Wind Speed 9 mph (ENE)    
Max Wind Speed 18 mph    
Max Gust Speed 25 mph    
Visibility 10 miles    
Events      
T = Trace of Precipitation, MM = Missing Value Source: NWS Daily Summary

Daily Weather History Graph

Daily Weather History Graph

Search for Another Location

Airport or City:

Astronomy

Oct. 01, 2019 Rise Set
Actual Time 7:19 AM EDT 7:10 PM EDT
Civil Twilight 6:54 AM EDT 7:35 PM EDT
Nautical Twilight 6:26 AM EDT 8:03 PM EDT
Astronomical Twilight 5:58 AM EDT 8:31 PM EDT
Moon 10:22 AM EDT (10/1) 9:35 PM EDT (10/1)
Length of Visible Light 12h 40m
Length of Day
11h 51m
Waxing Crescent, 12% of the Moon is Illuminated
Oct 1
Waxing Crescent
Oct 5
First Quarter
Oct 13
Full
Oct 21
Last Quarter
Oct 27
New

Hourly Weather History & Observations

Time (EDT) Temp. Heat Index Dew Point Humidity Pressure Visibility Wind Dir Wind Speed Gust Speed Precip Events Conditions
12:53 AM 81.0 °F 86.2 °F 73.9 °F 79% 30.07 in 10.0 mi ENE 5.8 mph - N/A   Partly Cloudy
1:53 AM 81.0 °F 86.2 °F 73.9 °F 79% 30.06 in 10.0 mi ENE 8.1 mph - N/A   Scattered Clouds
2:53 AM 81.0 °F 86.2 °F 73.9 °F 79% 30.04 in 10.0 mi ENE 8.1 mph - N/A   Partly Cloudy
3:53 AM 80.1 °F 84.5 °F 73.9 °F 81% 30.04 in 10.0 mi NE 8.1 mph - N/A   Mostly Cloudy
4:25 AM 80.1 °F 84.5 °F 73.9 °F 81% 30.03 in 10.0 mi NE 6.9 mph - N/A   Partly Cloudy
4:53 AM 80.1 °F 84.5 °F 73.9 °F 81% 30.03 in 10.0 mi NE 6.9 mph - N/A   Partly Cloudy
5:53 AM 80.1 °F 84.5 °F 73.9 °F 81% 30.03 in 10.0 mi NE 6.9 mph - N/A   Mostly Cloudy
6:53 AM 80.1 °F 84.5 °F 73.9 °F 81% 30.04 in 10.0 mi NNE 6.9 mph - N/A   Mostly Cloudy
7:53 AM 80.1 °F 84.5 °F 73.9 °F 81% 30.05 in 10.0 mi NE 8.1 mph - N/A   Mostly Cloudy
8:16 AM 81.0 °F 86.2 °F 73.9 °F 79% 30.06 in 10.0 mi NE 5.8 mph - N/A   Scattered Clouds
8:53 AM 82.9 °F 89.4 °F 73.9 °F 74% 30.07 in 10.0 mi NE 9.2 mph - N/A   Scattered Clouds
9:50 AM 86.0 °F 93.4 °F 73.4 °F 66% 30.08 in 10.0 mi ENE 11.5 mph - N/A   Mostly Cloudy
9:53 AM 84.9 °F 92.1 °F 73.9 °F 69% 30.09 in 10.0 mi ENE 10.4 mph - N/A   Mostly Cloudy
10:21 AM 86.0 °F 93.0 °F 73.0 °F 65% 30.09 in 10.0 mi ENE 10.4 mph - N/A   Scattered Clouds
10:53 AM 86.0 °F 93.0 °F 73.0 °F 65% 30.10 in 10.0 mi ENE 11.5 mph - N/A   Partly Cloudy
11:53 AM 89.1 °F 96.0 °F 72.0 °F 57% 30.10 in 10.0 mi ENE 11.5 mph - N/A   Partly Cloudy
12:53 PM 86.0 °F 93.8 °F 73.9 °F 67% 30.09 in 10.0 mi ENE 9.2 mph 21.9 mph N/A   Mostly Cloudy
1:48 PM 87.8 °F 95.6 °F 73.4 °F 62% 30.07 in 10.0 mi ENE 16.1 mph - N/A   Mostly Cloudy
1:53 PM 87.1 °F 95.4 °F 73.9 °F 65% 30.08 in 10.0 mi ENE 12.7 mph - N/A   Mostly Cloudy
2:37 PM 86.0 °F 92.2 °F 72.0 °F 63% 30.05 in 10.0 mi ENE 12.7 mph 25.3 mph N/A   Scattered Clouds
2:49 PM 86.0 °F 91.8 °F 71.6 °F 62% 30.05 in 10.0 mi ENE 18.4 mph 24.2 mph N/A   Mostly Cloudy
2:53 PM 86.0 °F 92.2 °F 72.0 °F 63% 30.06 in 10.0 mi ENE 16.1 mph 24.2 mph N/A   Mostly Cloudy
3:30 PM 86.0 °F 93.0 °F 73.0 °F 65% 30.04 in 10.0 mi ENE 15.0 mph 20.7 mph N/A   Scattered Clouds
3:53 PM 84.9 °F 90.7 °F 72.0 °F 65% 30.05 in 10.0 mi ENE 17.3 mph 23.0 mph N/A   Partly Cloudy
4:53 PM 84.9 °F 91.4 °F 73.0 °F 67% 30.04 in 10.0 mi ENE 15.0 mph - N/A   Partly Cloudy
5:48 PM 84.2 °F 90.9 °F 73.4 °F 70% 30.04 in 10.0 mi ENE 12.7 mph - N/A   Mostly Cloudy
5:53 PM 84.0 °F 91.2 °F 73.9 °F 72% 30.04 in 10.0 mi ENE 13.8 mph - N/A   Mostly Cloudy
6:53 PM 82.0 °F 86.7 °F 72.0 °F 71% 30.04 in 10.0 mi ENE 12.7 mph - N/A   Clear
7:53 PM 81.0 °F 85.2 °F 72.0 °F 74% 30.04 in 10.0 mi ENE 12.7 mph - N/A   Clear
8:53 PM 80.1 °F 83.6 °F 71.1 °F 74% 30.04 in 10.0 mi NE 9.2 mph - N/A   Clear
9:53 PM 80.1 °F 83.6 °F 71.1 °F 74% 30.04 in 10.0 mi ENE 8.1 mph - N/A   Clear
10:53 PM 80.1 °F 83.8 °F 72.0 °F 76% 30.04 in 10.0 mi East 9.2 mph - N/A   Clear
11:53 PM 80.1 °F 83.8 °F 72.0 °F 76% 30.03 in 10.0 mi East 8.1 mph - N/A   Clear